Location: ????????
(55.0808°N, 38.5463°E)
Time: 14:14:03
(UTC+00:00)

Lacrosse 5 - Pass Details

Date: 14 April 2024
Orbit: 714 x 724 km, 57.0° (Epoch: 09 March)

Event Time Altitude Azimuth Distance (km) Brightness Sun altitude
Exits shadow 01:44:47 - 268° (W) 2,675 4.2 -6.1°
Reaches altitude 10° 01:45:59 10° 270° (W) 2,220 3.8 -5.9°
Maximum altitude 01:51:06 72° 355° (N) 767 2.1 -5.2°
Drops below altitude 10° 01:56:13 10° 80° (E) 2,220 6.1 -4.6°
Sets 01:58:37 0° 83° (E) 3,140 7.0 -4.3°
